Regional Weather Roundup
Issued by NWS Midland/Odessa, TX

Skip options and go directly to product.
Home | Oldest Version | Previous Version | Current Version | All | Text Only | Save Text | Print | Product List | Glossary On

Skip product version selection by date and time.   
274
ASUS44 KMAF 251010
RWRMAF
MIDLAND AREA WEATHER ROUNDUP
NATIONAL WEATHER SERVICE MIDLAND TX
500 AM CDT SUN SEP 25 2016

...IN SOUTHWEST TEXAS AND SOUTHEAST NEW MEXICO...

CITY           SKY/WX    TMP DP  RH WIND       PRES   REMARKS
ALPINE         CLOUDY    62  60  91 W7        30.13S
ANDREWS        FAIR      65  65 100 CALM      30.04
ARTESIA        PTCLDY    59  41  51 NW12      30.07R
BIG SPRING     CLOUDY    68  65  90 E9G21     30.03S
CARLSBAD       CLEAR     60  38  43 NW13      30.03R
DRYDEN           N/A     68  67  96 CALM      29.94F
FORT STOCKTON  CLOUDY    65  62  90 E7        30.00R
GUAD PASS      CLEAR     63  28  26 NE21      30.13S
HOBBS          PTCLDY    63  63 100 N6        30.08R
MARFA          RAIN     N/A N/A N/A SW3       30.13R
MIDLAND AIRPK  CLOUDY    69  63  81 SE3       30.03R
MIDLAND INTL   CLOUDY    68  63  84 S3        30.02R
ODESSA         CLOUDY    68  62  81 CALM      30.03R
PECOS          CLOUDY    67  61  79 E6        29.98R
PRESIDIO       RAIN      65  64  96 N7        30.01F
SEMINOLE       PTCLDY    63  59  87 CALM      30.07R
SNYDER           N/A     66  65  97 CALM      30.02F
WINK           CLEAR     64  60  87 E7        29.99R
$$
...OTHER STATIONS IN TEXAS...

CITY           SKY/WX    TMP DP  RH WIND       PRES   REMARKS
ABILENE        TSTM      66  66 100 NE7       30.03F
AMARILLO       FOG       63  62  97 SE7       30.10R VSB 1/4
AUSTIN         CLOUDY    76  75  97 E5        29.96R
BROWNSVILLE    CLEAR     81  75  82 S7        29.87F
CORPUS CHRISTI MOCLDY    79  76  90 SE3       29.89F THUNDER
DALLAS FTW     CLOUDY    77  72  84 S6        29.98S
DEL RIO        CLOUDY    70  69  97 N5        29.89F
EL PASO        PTCLDY    66  29  24 N8        30.05S
HOUSTON INT    MOCLDY    76  75  97 CALM      29.96S
LUBBOCK        CLOUDY    66  64  93 E5        30.07R FOG
SAN ANGELO     RAIN      69  66  90 SE6       30.04R FOG
SAN ANTONIO    CLOUDY    77  74  90 E7        29.95R
WACO           MOCLDY    75  74  96 E7        29.99R
WICHITA FALLS  NOT AVBL
$$
...OTHER LOCATIONS IN NEW MEXICO...

CITY           SKY/WX    TMP DP  RH WIND       PRES   REMARKS
ALAMAGORDO     CLEAR     57  37  47 SE5       30.07R
ALBUQUERQUE    PTCLDY    53  34  48 N8        30.24R
CANNON AFB     CLEAR     53  37  56 N10       30.09F
CLOVIS         PTCLDY    52  36  54 N7        30.11R
HOLLOMAN AFB   PTCLDY    61  30  30 N15       30.05S
ROSWELL        CLOUDY    58  37  45 NE6       30.08R
RUIDOSO        PTCLDY    52  27  37 NW8       30.25S
SANTA FE       CLEAR     47  30  51 N15       30.28R
TRUTH OR CONSE CLEAR     56  30  37 N7        30.15F
TUCUMCARI      CLEAR     53  40  61 NE7       30.14R
$$

USA.gov is the U.S. government's official web portal to all federal, state and local government web resources and services.